FENGYUN 1C DEB

Satellite information

Favourite Embed

Satellite Type and Status

DEBRISIN ORBIT

Key statistics

Satellite FENGYUN 1C DEB at a glance.

Uptime

9493

Days in orbit

Revolutions

≈ 14.4

Per day

Orbit

SSO

Sun Synchronous Orbit

Inclination

98.9

Latest

Satellite identification and parameters

Extended collection of information and parameters for FENGYUN 1C DEB.

Object identification

Identified? True

Debris? True

Object name: FENGYUN 1C DEB

International designator: 1999-025KF

Object number (NORAD): 29957

Object ID (CCSDS): 29957

Country: PEOPLES REPUBLIC OF CHINA (PRC)

Current information (Y/N): Y

RCS size: SMALL

Orbital parameters

Period: 99.733 minutes

Inclination: 98.9185 deg

SMA: 7123.911 km

Apoapsis: 776.929 km

Periapsis: 714.624 km

RAAN: 241.1106 deg

Eccentricy: 0.0043729

Argument of periapsis: 119.3978 deg

Mean anomaly: 9.4772 deg

Mean motion: 14.43859698 rev/day

Mean motion (dot): 0.00018487 rev/day2

B* drag term: 0.0053615 1/REarth

Two-line elements (TLE)

Creation date: May 6, 2025, 3:54 a.m.

Reference frame: TEME

Reference center: EARTH

Epoch: May 5, 2025, 7:23 p.m. UTC

TLE line 0: 0 FENGYUN 1C DEB

TLE line 1: 1 29957U 99025KF 25125.80800264 .00018487 00000-0 53615-2 0 9990

TLE line 2: 2 29957 98.9185 241.1106 0043729 119.3978 9.4772 14.43859698942979

Live tracking on map

Real-time ground track for satellite FENGYUN 1C DEB.

In-orbit conjunctions

A list of the most updated potential collisions computed for object FENGYUN 1C DEB.

Target Orbit TCA Probability of collision Miss distance Type
COSMOS 858 LEO 2025-02-19 18:50:54 0.0002120133 373.0 (m) PAYLOAD
IRIDIUM 914 LEO 2024-12-15 05:42:10 0.0001379058 321.0 (m) PAYLOAD
DMSP 5D-2 F13 DEB SSO 2024-07-07 12:01:29 0.0001405687 262.0 (m) DEBRIS

Associated space launch

Chinese polar orbiting meteorological satellite

FENGYUN 1C DEB was lifted into orbit during the mission ‘Long March 4B | Feng Yun 1C’, on board a Long March 4B space rocket.

The launch took place on May 10, 1999, 1:33 a.m. from Launch Complex 7.

For more information about the launch, click the button.

Launch to space Long March 4B | Feng Yun 1C
Long March 4B | Feng Yun 1C

Agency: N/A

Status: Launch Successful

Launch date: May 10, 1999, 1:33 a.m. UTC

Rocket: Long March 4B

Launch pad: Launch Complex 7

Location: Taiyuan Satellite Launch Center, People's Republic of China

...

Latest news about this satellite

There are no fresh news available about this satellite. Check back as we update our databases every day.


Newsletter sign-up

Weekly statistics, charts and insights to help you stay on top of the space industry.